Location: Artiguedieu
(43.5000°N, 0.5454°E)
Time: 10:36:39
(UTC+00:00)

Vanguard 1 Rocket - Pass Details

Date: 05 August 2021
Orbit: 650 x 4226 km, 34.3° (Epoch: 24 September)

Event Time Altitude Azimuth Distance (km) Brightness Sun altitude
Rises 06:41:10 0° 209° (SSW) 8,392 12.0 18.2°
Reaches altitude 10° 06:48:04 10° 201° (SSW) 7,423 11.8 19.5°
Maximum altitude 07:08:43 34° 148° (SSE) 4,998 11.8 23.2°
Drops below altitude 10° 07:23:29 10° 92° (E) 5,416 13.3 25.9°
Sets 07:27:24 0° 83° (E) 5,981 12.9 26.6°
